Las Vegas, NV

3:47 AM PDT on June 24, 2017 (GMT -0700)
McCarran International

Weather History for KLAS - September, 2013

Change the Weather History Date:

Friday, September 6, 2013

  Actual Average Record
Temperature  
Mean Temperature 91 °F 86 °F  
Max Temperature 101 °F 98 °F 110 °F (1955)
Min Temperature 81 °F 75 °F 54 °F (1970)
Degree Days  
Heating Degree Days 0 0  
Month to date heating degree days 0 0  
Since 1 July heating degree days 0 0  
Cooling Degree Days 26 21  
Month to date cooling degree days 146 132  
Year to date cooling degree days 3318 2981  
Growing Degree Days 40 (Base 50)    
Moisture  
Dew Point 55 °F    
Average Humidity 31    
Maximum Humidity 40    
Minimum Humidity 22    
Precipitation  
Precipitation T in 0.01 in 0.89 in (1939)
Month to date precipitation 0.01 0.06  
Year to date precipitation 1.20 2.87  
Snow  
Snow 0.00 in 0.00 in 0.00 in ()
Month to date snowfall 0.0 0.0  
Since 1 July snowfall 0.0 0.0  
Since 1 September snowfall 0.0 0.0  
Snow Depth 0.00 in    
Sea Level Pressure  
Sea Level Pressure 29.81 in    
Wind  
Wind Speed 9 mph (SSW)    
Max Wind Speed 26 mph    
Max Gust Speed 37 mph    
Visibility 10 miles    
Events Rain , Thunderstorm    
T = Trace of Precipitation, MM = Missing Value Source: NWS Daily Summary

Daily Weather History Graph

Daily Weather History Graph

Search for Another Location

Airport or City:

Trip Planner

Search our weather history database for the weather conditions in past years. The results will help you decide how hot, cold, wet, or windy it might be!

Date:

Astronomy

Sep. 06, 2013 Rise Set
Actual Time 6:16 AM PDT 7:00 PM PDT
Civil Twilight 5:50 AM PDT 7:26 PM PDT
Nautical Twilight 5:19 AM PDT 7:57 PM PDT
Astronomical Twilight 4:48 AM PDT 8:28 PM PDT
Moon 7:29 AM PDT (9/6) 7:32 PM PDT (9/6)
Length of Visible Light 13h 36m
Length of Day
12h 44m
New Moon, 2% of the Moon is Illuminated
Sep 6
New Moon
Sep 12
First Quarter
Sep 19
Full
Sep 26
Last Quarter
Oct 4
New

Hourly Weather History & Observations

Time (PDT) Temp. Heat Index Dew Point Humidity Pressure Visibility Wind Dir Wind Speed Gust Speed Precip Events Conditions
12:56 AM 86.0 °F 84.7 °F 55.9 °F 36% 29.81 in 10.0 mi SSW 8.1 mph - N/A   Clear
1:56 AM 84.9 °F 83.6 °F 55.0 °F 36% 29.81 in 10.0 mi SSW 9.2 mph - N/A   Clear
2:56 AM 84.0 °F 82.6 °F 54.0 °F 35% 29.81 in 10.0 mi South 8.1 mph - N/A   Clear
3:56 AM 82.9 °F 81.9 °F 54.0 °F 37% 29.81 in 10.0 mi SSW 8.1 mph - N/A   Clear
4:56 AM 82.0 °F 81.4 °F 55.0 °F 39% 29.81 in 10.0 mi SSW 5.8 mph - N/A   Clear
5:56 AM 82.0 °F 81.4 °F 55.0 °F 39% 29.82 in 10.0 mi SSW 5.8 mph - N/A   Partly Cloudy
6:56 AM 82.0 °F 81.4 °F 55.0 °F 39% 29.83 in 10.0 mi SW 8.1 mph - N/A   Scattered Clouds
7:56 AM 84.9 °F 83.7 °F 55.9 °F 37% 29.82 in 10.0 mi SSW 4.6 mph - N/A   Partly Cloudy
8:56 AM 88.0 °F 86.1 °F 55.0 °F 32% 29.85 in 10.0 mi South 8.1 mph - N/A   Partly Cloudy
9:26 AM 91.4 °F 89.4 °F 55.4 °F 29% 29.94 in 10.0 mi South 9.2 mph - N/A   Scattered Clouds
9:56 AM 91.9 °F 90.0 °F 55.0 °F 29% 29.85 in 10.0 mi Variable 5.8 mph - N/A   Scattered Clouds
10:56 AM 95.0 °F 92.7 °F 54.0 °F 25% 29.85 in 10.0 mi Calm Calm - N/A   Scattered Clouds
11:56 AM 99.0 °F 96.5 °F 53.1 °F 21% 29.83 in 10.0 mi ESE 5.8 mph - N/A   Scattered Clouds
12:56 PM 99.0 °F 96.9 °F 54.0 °F 22% 29.80 in 10.0 mi Variable 3.5 mph - N/A   Scattered Clouds
1:31 PM 100.4 °F 98.4 °F 53.6 °F 21% 29.87 in 10.0 mi East 8.1 mph - N/A   Scattered Clouds
1:56 PM 98.1 °F 96.1 °F 54.0 °F 23% 29.77 in 10.0 mi SE 8.1 mph - N/A   Mostly Cloudy
2:26 PM 91.4 °F 89.1 °F 53.6 °F 28% 29.86 in 10.0 mi South 25.3 mph 35.7 mph N/A Thunderstorm Thunderstorm
2:56 PM 93.0 °F - 50.0 °F 23% 29.75 in 10.0 mi WNW 17.3 mph 32.2 mph 0.00 in Rain , Thunderstorm Light Thunderstorms and Rain
3:22 PM 89.6 °F 87.3 °F 53.6 °F 29% 29.86 in 10.0 mi South 23.0 mph 34.5 mph 0.00 in Rain , Thunderstorm Light Thunderstorms and Rain
3:56 PM 88.0 °F 86.1 °F 55.0 °F 32% 29.79 in 10.0 mi West 15.0 mph - 0.00 in   Mostly Cloudy
4:56 PM 84.9 °F 85.4 °F 62.1 °F 46% 29.80 in 10.0 mi South 11.5 mph - 0.00 in Rain Light Rain
5:56 PM 88.0 °F 86.7 °F 57.0 °F 35% 29.77 in 10.0 mi SW 4.6 mph - 0.00 in   Mostly Cloudy
6:56 PM 88.0 °F 86.1 °F 55.0 °F 32% 29.77 in 10.0 mi South 8.1 mph - N/A   Mostly Cloudy
7:56 PM 86.0 °F 84.7 °F 55.9 °F 36% 29.77 in 10.0 mi SSW 9.2 mph - N/A   Mostly Cloudy
8:56 PM 84.9 °F 83.7 °F 55.9 °F 37% 29.79 in 10.0 mi SSW 11.5 mph - N/A   Scattered Clouds
9:56 PM 84.9 °F 83.6 °F 55.0 °F 36% 29.77 in 10.0 mi SSW 13.8 mph 23.0 mph N/A   Mostly Cloudy
10:56 PM 84.0 °F 82.6 °F 54.0 °F 35% 29.79 in 10.0 mi South 10.4 mph - N/A   Mostly Cloudy
11:56 PM 84.0 °F 82.6 °F 54.0 °F 35% 29.79 in 10.0 mi South 11.5 mph - N/A   Mostly Cloudy